Preview of NWS' New Version of Forecast
This preview is not operational and should not be used for support decisions.

Regional Weather Roundup (RWR)

Issued by National Weather Service (NWS)

                            
000
ASUS44 KJAN 181910
RWRMS 

MISSISSIPPI HOURLY WEATHER ROUNDUP
NATIONAL WEATHER SERVICE JACKSON MS
200 PM CDT THU APR 18 2019

NOTE: "FAIR: INDICATES FEW OR NO CLOUDS BELOW 12,000 FEET WITH NO
SIGNIFICANT WEATHER AND/OR OBSTRUCTIONS TO VISIBILITY.

MSZ001>002-007>008-010>013-018>021-025>028-034>036-182000-
NORTHWEST MISSISSIPPI
  
CITY           SKY/WX    TMP DP  RH WIND       PRES   REMARKS
BATESVILLE       N/A     64  63  94 W3        29.75S                  
CLARKSDALE     MOSUNNY   64  64 100 CALM      29.73F                  
CLEVELAND      LGT RAIN  62  62 100 NE6       29.72F                  
GREENWOOD      CLOUDY    63  61  93 VRB6G17   29.70F THUNDER          
GREENVILLE     RAIN      62  59  90 NE7       29.72S FOG              
OLIVE BRANCH   CLOUDY    63  63 100 S8        29.72F                  
OXFORD         RAIN      63  63 100 NW10      29.75S                  
TUNICA         LGT RAIN  63  61  94 SE8       29.73F                  
WINONA         HVY RAIN  64  64 100 N3        29.71S VSB 3/4          
$$

MSZ003>006-009-014>017-022>024-029>033-037>039-182000-
NORTHEAST MISSISSIPPI
  
CITY           SKY/WX    TMP DP  RH WIND       PRES   REMARKS
ABERDEEN       MOCLDY    77  73  88 SE14      29.73F                  
COLUMBUS AFB   FAIR      77  64  64 S21G26    29.72F                  
CORINTH        MOCLDY    72  61  68 S10       29.71F                  
GOLDN TRIANGLE PTSUNNY   78  65  63 S17G25    29.73F                  
STARKVILLE     MOCLDY    75  64  69 SE15      29.73F                  
TUPELO         HVY RAIN  69  66  90 SW3       29.71F FOG              
$$

MSZ040-058-182000-
CENTRAL MISSISSIPPI
  
CITY           SKY/WX    TMP DP  RH WIND       PRES   REMARKS
JACKSON INTL   TSTM      72  65  78 E9        29.64F                  
JACKSON HAWKNS HVY RAIN  70  68  93 SE6       29.64F FOG              
MADISON        MOCLDY    68  68 100 E3        29.64F                  
MERIDIAN KEY   PTSUNNY   80  62  54 S9        29.73F                  
MERIDIAN NAS   CLOUDY    81  63  54 S9        29.74F                  
RAYMOND        RAIN      70  70 100 CALM      29.63F                  
VICKSBURG VKS  FOG       61  61 100 NW21G30   29.77R VSB 0            
$$

MSZ059>079-182000-
SOUTH MISSISSIPPI
  
CITY           SKY/WX    TMP DP  RH WIND       PRES   REMARKS
HATTIESBURG    CLOUDY    76  65  68 SE20G30   29.73F                  
LAUREL         CLOUDY    76  67  73 SE10      29.72F                  
MCCOMB         TSTM      70  66  87 SE13G21   29.64F FOG              
NATCHEZ        RAIN      61  61 100 N20G31    29.72S                  
PINE BELT      CLOUDY    75  66  73 SE14      29.72F                  
$$

MSZ080>082-182000-
COASTAL MISSISSIPPI
  
CITY           SKY/WX    TMP DP  RH WIND       PRES   REMARKS
BAY ST LOUIS   CLOUDY    75  70  83 SE17G25   29.72F                  
BILOXI         NOT AVBL                                               
PASCAGOULA     CLOUDY    80  67  64 SE14G24   29.78F                  
GULFPORT       PTSUNNY   75  69  81 SE20      29.75F                  
$$

LAZ007>009-015>016-023>026-182000-
NORTHEAST LOUISIANA
  
CITY           SKY/WX    TMP DP  RH WIND       PRES   REMARKS
BASTROP        HVY RAIN  61  61  98 E3        29.76F                  
TALLULAH/VBURG TSTM      61  60  97 N9G23     29.76R VSB 1            
VIDALIA        TSTM      62  61  96 N15G28    29.70F                  
$$